• In Belgien
  • Länderverzeichnis
  • Für 7 Tage
  • Wassertemperatur
  • Satellitenkarten
  • Wetterkarte
  • Widgets
  • user-avatar
    Anmelden

    Stündliche Wetter Steniatyn

    Heute, 21 September, Freitag

    Zeit Temperatur Niederschläge Wind Luftdruck Luftfeuchtigkeit
    00:00 +18°C° 0 mm 1 m/S 744 mmHg 72%
    01:00 +18°C° 0 mm 1 m/S 744 mmHg 74%
    02:00 +16°C° 0 mm 1 m/S 744 mmHg 76%
    03:00 +16°C° 0 mm 1 m/S 743 mmHg 77%
    04:00 +16°C° 0 mm 1 m/S 743 mmHg 78%
    05:00 +15°C° 0 mm 1 m/S 743 mmHg 80%
    06:00 +16°C° 0 mm 1 m/S 743 mmHg 78%
    07:00 +18°C° 0 mm 1 m/S 743 mmHg 76%
    08:00 +18°C° 0 mm 2 m/S 743 mmHg 74%
    09:00 +20°C° 0 mm 2 m/S 743 mmHg 69%
    10:00 +23°C° 0 mm 2 m/S 743 mmHg 63%
    11:00 +25°C° 0 mm 3 m/S 743 mmHg 58%
    12:00 +25°C° 0 mm 3 m/S 743 mmHg 55%
    13:00 +26°C° 0 mm 3 m/S 742 mmHg 53%
    14:00 +27°C° 0 mm 3 m/S 742 mmHg 50%
    15:00 +26°C° 0 mm 3 m/S 741 mmHg 53%
    16:00 +26°C° 0 mm 3 m/S 741 mmHg 56%
    17:00 +26°C° 0 mm 2 m/S 741 mmHg 59%
    18:00 +24°C° 0 mm 3 m/S 740 mmHg 64%
    19:00 +21°C° 0 mm 3 m/S 740 mmHg 69%
    20:00 +19°C° 0 mm 3 m/S 740 mmHg 73%
    21:00 +19°C° 0 mm 3 m/S 740 mmHg 73%
    22:00 +18°C° 0 mm 3 m/S 740 mmHg 72%
    23:00 +18°C° 0 mm 3 m/S 740 mmHg 72%

    Morgen, 22 September, Samstag

    Zeit Temperatur Niederschläge Wind Luftdruck Luftfeuchtigkeit
    00:00 +18°C° 0 mm 3 m/S 740 mmHg 71%
    01:00 +17°C° 0 mm 3 m/S 739 mmHg 71%
    02:00 +17°C° 0 mm 3 m/S 739 mmHg 71%
    03:00 +17°C° 0 mm 4 m/S 739 mmHg 69%
    04:00 +17°C° 0 mm 4 m/S 739 mmHg 68%
    05:00 +17°C° 0 mm 4 m/S 739 mmHg 66%
    06:00 +17°C° 0.2 mm 4 m/S 740 mmHg 70%
    07:00 +15°C° 0.2 mm 5 m/S 740 mmHg 73%
    08:00 +15°C° 0.2 mm 6 m/S 741 mmHg 77%
    09:00 +14°C° 0.5 mm 5 m/S 742 mmHg 79%
    10:00 +13°C° 0.5 mm 4 m/S 742 mmHg 82%
    11:00 +12°C° 0.5 mm 4 m/S 743 mmHg 84%
    12:00 +12°C° 0.5 mm 3 m/S 743 mmHg 85%
    13:00 +11°C° 0.5 mm 3 m/S 744 mmHg 85%
    14:00 +11°C° 0.5 mm 3 m/S 744 mmHg 86%
    15:00 +11°C° 0.4 mm 3 m/S 744 mmHg 86%
    16:00 +11°C° 0.4 mm 3 m/S 743 mmHg 87%
    17:00 +11°C° 0.4 mm 3 m/S 743 mmHg 87%
    18:00 +10°C° 0 mm 3 m/S 743 mmHg 89%
    19:00 +10°C° 0 mm 3 m/S 743 mmHg 91%
    20:00 +9°C° 0 mm 3 m/S 743 mmHg 92%
    21:00 +9°C° 0 mm 3 m/S 743 mmHg 91%
    22:00 +9°C° 0 mm 3 m/S 743 mmHg 89%
    23:00 +9°C° 0 mm 3 m/S 743 mmHg 88%

    übermorgen, 23 September, Sonntag

    Zeit Temperatur Niederschläge Wind Luftdruck Luftfeuchtigkeit
    00:00 +8°C° 0 mm 3 m/S 743 mmHg 88%
    01:00 +8°C° 0 mm 3 m/S 743 mmHg 88%
    02:00 +8°C° 0 mm 3 m/S 743 mmHg 88%
    03:00 +7°C° 0 mm 4 m/S 743 mmHg 87%
    04:00 +7°C° 0 mm 4 m/S 744 mmHg 87%
    05:00 +7°C° 0 mm 4 m/S 744 mmHg 87%
    06:00 +7°C° 0 mm 4 m/S 744 mmHg 84%
    07:00 +8°C° 0 mm 4 m/S 744 mmHg 81%
    08:00 +9°C° 0 mm 5 m/S 744 mmHg 78%
    09:00 +10°C° 0 mm 5 m/S 745 mmHg 70%
    10:00 +13°C° 0 mm 6 m/S 745 mmHg 63%
    11:00 +15°C° 0 mm 6 m/S 745 mmHg 55%
    12:00 +15°C° 0 mm 6 m/S 745 mmHg 52%
    13:00 +16°C° 0 mm 6 m/S 744 mmHg 49%
    14:00 +16°C° 0 mm 6 m/S 744 mmHg 47%
    15:00 +16°C° 0 mm 5 m/S 744 mmHg 50%
    16:00 +17°C° 0 mm 4 m/S 744 mmHg 53%
    17:00 +17°C° 0 mm 3 m/S 743 mmHg 56%
    18:00 +14°C° 0 mm 3 m/S 743 mmHg 61%
    19:00 +13°C° 0 mm 3 m/S 743 mmHg 66%
    20:00 +11°C° 0 mm 3 m/S 743 mmHg 71%
    21:00 +11°C° 0 mm 3 m/S 742 mmHg 71%
    22:00 +11°C° 0 mm 3 m/S 742 mmHg 72%
    23:00 +12°C° 0 mm 3 m/S 741 mmHg 72%

    24 September, Montag

    Zeit Temperatur Niederschläge Wind Luftdruck Luftfeuchtigkeit
    00:00 +12°C° 0 mm 4 m/S 740 mmHg 71%
    01:00 +12°C° 0 mm 4 m/S 739 mmHg 71%
    02:00 +12°C° 0 mm 5 m/S 738 mmHg 70%
    03:00 +12°C° 0.7 mm 5 m/S 737 mmHg 71%
    04:00 +12°C° 0.7 mm 5 m/S 736 mmHg 72%
    05:00 +12°C° 0.7 mm 5 m/S 734 mmHg 72%
    06:00 +13°C° 0.5 mm 6 m/S 733 mmHg 71%
    07:00 +14°C° 0.5 mm 7 m/S 732 mmHg 69%
    08:00 +14°C° 0.5 mm 7 m/S 731 mmHg 67%
    09:00 +15°C° 0.1 mm 8 m/S 730 mmHg 69%
    10:00 +15°C° 0.1 mm 8 m/S 730 mmHg 71%
    11:00 +16°C° 0.1 mm 8 m/S 729 mmHg 72%
    12:00 +16°C° 0.3 mm 9 m/S 729 mmHg 73%
    13:00 +14°C° 0.3 mm 10 m/S 728 mmHg 74%
    14:00 +14°C° 0.3 mm 11 m/S 728 mmHg 75%
    15:00 +13°C° 0.3 mm 12 m/S 728 mmHg 75%
    16:00 +10°C° 0.3 mm 13 m/S 729 mmHg 74%
    17:00 +9°C° 0.3 mm 14 m/S 729 mmHg 74%
    18:00 +9°C° 0.2 mm 13 m/S 730 mmHg 74%
    19:00 +8°C° 0.2 mm 13 m/S 731 mmHg 74%
    20:00 +8°C° 0.2 mm 12 m/S 733 mmHg 75%
    21:00 +8°C° 0.2 mm 12 m/S 734 mmHg 75%
    22:00 +8°C° 0.2 mm 11 m/S 735 mmHg 75%
    23:00 +8°C° 0.2 mm 11 m/S 736 mmHg 75%

    25 September, Dienstag

    Zeit Temperatur Niederschläge Wind Luftdruck Luftfeuchtigkeit
    00:00 +7°C° 0.1 mm 11 m/S 737 mmHg 75%
    01:00 +7°C° 0.1 mm 11 m/S 738 mmHg 74%
    02:00 +7°C° 0.1 mm 11 m/S 739 mmHg 74%
    03:00 +6°C° 0.1 mm 11 m/S 740 mmHg 74%
    04:00 +6°C° 0.1 mm 11 m/S 741 mmHg 73%
    05:00 +6°C° 0.1 mm 10 m/S 741 mmHg 73%
    06:00 +6°C° 0.1 mm 10 m/S 742 mmHg 72%
    07:00 +6°C° 0.1 mm 10 m/S 743 mmHg 72%
    08:00 +6°C° 0.1 mm 10 m/S 743 mmHg 72%
    09:00 +6°C° 0.1 mm 10 m/S 744 mmHg 69%
    10:00 +6°C° 0.1 mm 10 m/S 745 mmHg 67%
    11:00 +7°C° 0.1 mm 10 m/S 745 mmHg 65%
    12:00 +8°C° 0.2 mm 10 m/S 746 mmHg 61%
    13:00 +8°C° 0.2 mm 10 m/S 746 mmHg 58%
    14:00 +9°C° 0.2 mm 10 m/S 746 mmHg 54%
    15:00 +10°C° 0.1 mm 8 m/S 746 mmHg 54%
    16:00 +10°C° 0.1 mm 7 m/S 747 mmHg 53%
    17:00 +10°C° 0.1 mm 6 m/S 747 mmHg 52%
    18:00 +9°C° 0 mm 6 m/S 747 mmHg 57%
    19:00 +8°C° 0 mm 6 m/S 746 mmHg 62%
    20:00 +7°C° 0 mm 6 m/S 746 mmHg 67%
    21:00 +7°C° 0.1 mm 6 m/S 746 mmHg 67%
    22:00 +5°C° 0.1 mm 6 m/S 745 mmHg 67%
    23:00 +5°C° 0.1 mm 7 m/S 745 mmHg 67%

    26 September, Mittwoch

    Zeit Temperatur Niederschläge Wind Luftdruck Luftfeuchtigkeit
    00:00 +5°C° 0.8 mm 7 m/S 744 mmHg 74%
    01:00 +5°C° 0.8 mm 7 m/S 744 mmHg 81%
    02:00 +5°C° 0.8 mm 7 m/S 743 mmHg 88%
    03:00 +5°C° 0.5 mm 6 m/S 743 mmHg 87%
    04:00 +5°C° 0.5 mm 6 m/S 743 mmHg 87%
    05:00 +5°C° 0.5 mm 5 m/S 743 mmHg 87%
    06:00 +6°C° 0.1 mm 5 m/S 743 mmHg 87%
    07:00 +6°C° 0.1 mm 5 m/S 744 mmHg 87%
    08:00 +6°C° 0.1 mm 5 m/S 745 mmHg 87%
    09:00 +7°C° 0.1 mm 5 m/S 745 mmHg 84%
    10:00 +8°C° 0.1 mm 5 m/S 746 mmHg 80%
    11:00 +9°C° 0.1 mm 5 m/S 747 mmHg 76%
    12:00 +10°C° 0 mm 5 m/S 748 mmHg 69%
    13:00 +12°C° 0 mm 5 m/S 748 mmHg 62%
    14:00 +13°C° 0 mm 5 m/S 748 mmHg 55%
    15:00 +13°C° 0.1 mm 5 m/S 749 mmHg 59%
    16:00 +12°C° 0.1 mm 4 m/S 749 mmHg 62%
    17:00 +12°C° 0.1 mm 4 m/S 749 mmHg 65%
    18:00 +11°C° 0.1 mm 3 m/S 749 mmHg 70%
    19:00 +9°C° 0.1 mm 3 m/S 750 mmHg 76%
    20:00 +8°C° 0.1 mm 3 m/S 750 mmHg 82%
    21:00 +8°C° 0 mm 3 m/S 750 mmHg 83%
    22:00 +7°C° 0 mm 3 m/S 751 mmHg 84%
    23:00 +7°C° 0 mm 3 m/S 751 mmHg 85%
    Mehr zeigen